This is the latest recevied weather packets stored in our database for station/object W1REE. If no packets are shown the sender has not sent any weather packets the latest 10 day(s).
| Time | Temp. | Humidity | Pressure | Rain* | Wind** | Luminosity | Snow |
|---|---|---|---|---|---|---|---|
| 1777514239 | 5° C | 87% | 1022.4 hPa | 3.05 mm | - | 0 W/m² | - |
| 1777513934 | 5.56° C | 86% | 1021.9 hPa | 1.78 mm | - | 0 W/m² | - |
| 1777513632 | 5.56° C | 86% | 1022 hPa | 1.78 mm | - | 1 W/m² | - |
| 1777513329 | 5.56° C | 88% | 1022 hPa | 1.78 mm | - | 1 W/m² | - |
| 1777513024 | 5.56° C | 87% | 1021.9 hPa | 1.27 mm | - | 1 W/m² | - |
| 1777512720 | 5.56° C | 87% | 1021.8 hPa | 3.05 mm | - | 1 W/m² | - |
| 1777512417 | 5.56° C | 87% | 1021.7 hPa | 1.78 mm | - | 2 W/m² | - |
| 1777512114 | 6.11° C | 84% | 1021.4 hPa | 3.05 mm | - | 3 W/m² | - |
| 1777511813 | 6.11° C | 85% | 1021.4 hPa | 3.05 mm | - | 5 W/m² | - |
| 1777511509 | 6.11° C | 84% | 1021.6 hPa | 1.78 mm | - | 6 W/m² | - |
| 1777511206 | 6.11° C | 83% | 1021.3 hPa | 1.27 mm | - | 10 W/m² | - |
| 1777510902 | 6.11° C | 82% | 1021.3 hPa | 1.27 mm | - | 13 W/m² | - |
| 1777510598 | 6.11° C | 81% | 1021.3 hPa | 0 mm | - | 10 W/m² | - |
| 1777510294 | 6.11° C | 81% | 1021.1 hPa | 0 mm | - | 17 W/m² | - |
| 1777509992 | 6.11° C | 82% | 1021 hPa | 1.78 mm | - | 13 W/m² | - |
| 1777509687 | 6.67° C | 83% | 1021 hPa | 1.78 mm | - | 13 W/m² | - |
| 1777509384 | 6.67° C | 80% | 1020.8 hPa | 0 mm | - | 12 W/m² | - |
| 1777509081 | 6.67° C | 80% | 1020.7 hPa | 0 mm | - | 12 W/m² | - |
| 1777508778 | 6.67° C | 79% | 1020.7 hPa | 1.27 mm | - | 14 W/m² | - |
| 1777508475 | 7.22° C | 76% | 1020.8 hPa | 1.27 mm | - | 20 W/m² | - |
| 1777508172 | 7.22° C | 74% | 1020.6 hPa | 0 mm | - | 31 W/m² | - |
| 1777507869 | 7.78° C | 71% | 1020.2 hPa | 0 mm | - | 54 W/m² | - |
| 1777507566 | 7.78° C | 70% | 1020.5 hPa | 0 mm | - | 72 W/m² | - |
| 1777507263 | 7.22° C | 69% | 1020.5 hPa | 0 mm | - | 47 W/m² | - |
| 1777506960 | 7.22° C | 70% | 1020.6 hPa | 0 mm | - | 54 W/m² | - |
* Rain latest hour (hover to see other rain measurements)
** Current wind speed in m/s (hover to see current wind gust speed)